KMCK

McCook Ben Nelson Regional Airport

Airport
ICAO code
KMCK
Summary
ICAO Region
NAM
ICAO Territory
Location

McCook, Nebraska,

Coordinates
40° 12' 23" N , 100° 35' 31" W
KCC
Metar
KMCK 040653Z AUTO 35008KT 10SM CLR 03/M12 A2974 RMK AO2 SLP070 T00331122 $

Description

McCook Ben Nelson Regional Airport is a public-use airport located 4 km east of the central business district of McCook, a city in Red Willow County, Nebraska.

Climatology

Humid continental climate (Köppen climate classification Dfa) - characterized by four seasons: cold, windy, snowy winters, mild springs, hot, humid summers, and crisp and relatively short autumns. Precipitation reaches its lowest in January and February and peaks in summer and latter half of spring.

Runways

Designator Length Width Surface Rops
17/35 411 49 GRS No/No
4/22 1219 23 CONC-G Yes/Yes
12/30 1966 30 CON Yes/Yes

Airport map

Aerial View

SKYbrary Partners:

Safety knowledge contributed by: